Weather History for Chicopee, MA

Change the Weather History Date:

Sunday, November 13, 2011

  Actual Average Record
Temperature  
Mean Temperature 44 °F -  
Max Temperature 60 °F 46 °F 64 °F (2010)
Min Temperature 28 °F 29 °F 14 °F (2001)
Degree Days  
Heating Degree Days 21    
Moisture  
Dew Point 38 °F    
Average Humidity 74    
Maximum Humidity 97    
Minimum Humidity 49    
Precipitation  
Precipitation 0.00 in - - ()
Sea Level Pressure  
Sea Level Pressure 30.05 in    
Wind  
Wind Speed 6 mph (South)    
Max Wind Speed 18 mph    
Max Gust Speed 26 mph    
Visibility 10 miles    
Events      
Averages and records for this station are not official NWS values.
T = Trace of Precipitation, MM = Missing Value Source: NWS Daily Summary

Daily Weather History Graph

Daily Weather History Graph

Search for Another Location

Airport:

Trip Planner

Search our weather history database for the weather conditions in past years. The results will help you decide how hot, cold, wet, or windy it might be!

Date:

Astronomy

Nov. 13, 2011 Rise Set
Actual Time 6:37 AM EST 4:30 PM EST
Civil Twilight 6:07 AM EST 5:00 PM EST
Nautical Twilight 5:33 AM EST 5:34 PM EST
Astronomical Twilight 5:00 AM EST 6:07 PM EST
Moon 6:34 PM EST (11/13) 9:10 AM EST (11/13)
Length of Visible Light 10h 52m
Length of Day
9h 52m
Waning Gibbous, 93% of the Moon is Illuminated
Nov 13
Waning Gibbous
Nov 18
Last Quarter
Nov 25
New
Dec 2
First Quarter
Dec 10
Full

Hourly Weather History & Observations

Time (EST) Temp. Windchill Dew Point Humidity Pressure Visibility Wind Dir Wind Speed Gust Speed Precip Events Conditions
12:55 AM 32.4 °F - 29.3 °F 88% 30.10 in 10.0 mi Calm Calm - N/A   Clear
1:55 AM 31.8 °F - 29.5 °F 91% 30.11 in 10.0 mi Calm Calm - N/A   Clear
2:55 AM 30.9 °F - 29.7 °F 95% 30.11 in 10.0 mi Calm Calm - N/A   Clear
3:55 AM 29.8 °F 24.9 °F 28.9 °F 96% 30.12 in 10.0 mi NE 4.6 mph - N/A   Clear
4:55 AM 30.2 °F - 28.4 °F 93% 30.13 in 10.0 mi Calm Calm - N/A   Clear
5:55 AM 29.1 °F 25.4 °F 28.4 °F 97% 30.14 in 10.0 mi NE 3.5 mph - N/A   Clear
6:55 AM 28.2 °F 23.1 °F 27.3 °F 96% 30.15 in 10.0 mi NNE 4.6 mph - N/A   Clear
7:55 AM 32.2 °F 28.9 °F 31.1 °F 96% 30.15 in 10.0 mi NE 3.5 mph - N/A   Clear
8:55 AM 39.7 °F - 36.3 °F 88% 30.15 in 10.0 mi Calm Calm - N/A   Clear
9:55 AM 45.0 °F - 38.3 °F 77% 30.14 in 10.0 mi Calm Calm - N/A   Partly Cloudy
10:55 AM 54.9 °F - 42.1 °F 62% 30.10 in 10.0 mi South 17.3 mph - N/A   Clear
11:55 AM 58.3 °F - 41.4 °F 53% 30.06 in 10.0 mi South 13.8 mph 21.9 mph N/A   Partly Cloudy
12:55 PM 58.6 °F - 41.4 °F 53% 30.02 in 10.0 mi South 13.8 mph - N/A   Clear
1:55 PM 60.8 °F - 41.4 °F 49% 29.98 in 10.0 mi South 17.3 mph 26.5 mph N/A   Mostly Cloudy
2:55 PM 59.4 °F - 40.5 °F 50% 29.99 in 10.0 mi South 18.4 mph - N/A   Mostly Cloudy
3:55 PM 57.2 °F - 42.8 °F 59% 30.00 in 10.0 mi South 9.2 mph - N/A   Scattered Clouds
4:55 PM 54.9 °F - 43.7 °F 66% 29.97 in 10.0 mi SSE 10.4 mph - N/A   Overcast
5:55 PM 54.9 °F - 43.2 °F 65% 29.97 in 10.0 mi South 13.8 mph - N/A   Mostly Cloudy
6:55 PM 54.0 °F - 43.3 °F 67% 29.98 in 10.0 mi South 12.7 mph - N/A   Mostly Cloudy
7:55 PM 53.8 °F - 43.7 °F 69% 29.98 in 10.0 mi South 11.5 mph - N/A   Mostly Cloudy
8:55 PM 53.2 °F - 43.7 °F 70% 29.96 in 10.0 mi South 11.5 mph - N/A   Overcast
9:55 PM 53.4 °F - 43.7 °F 70% 29.95 in 10.0 mi South 11.5 mph - N/A   Overcast
10:55 PM 54.0 °F - 42.6 °F 65% 29.94 in 10.0 mi South 11.5 mph - N/A   Overcast
11:55 PM 54.1 °F - 41.7 °F 63% 29.94 in 10.0 mi South 13.8 mph - N/A   Overcast